Location: *
(50.5492°N, 7.7469°E)
Time: 07:37:02
(UTC+00:00)

Okean 3 Rocket - Pass Details

Date: 21 October 2019
Orbit: 615 x 645 km, 82.5° (Epoch: 14 November)

Event Time Altitude Azimuth Distance (km) Brightness Sun altitude
Rises 18:52:36 0° 348° (NNW) 2,966 7.4 -23.9°
Reaches altitude 10° 18:54:52 10° 346° (NNW) 2,048 6.5 -24.3°
Maximum altitude 18:59:24 71° 263° (W) 680 3.8 -25.0°
Enters shadow 19:00:15 55° 203° (SSW) 771 4.0 -25.1°
